Weather reports worldwide

Advertisment
Cardinham, United Kingdom (3823): temperature & dewpoint: 15.11.2017 13:00:00 - 21.11.2017 13:00:00 (GMT)Cardinham, United Kingdom (3823): wind speed: 15.11.2017 13:00:00 - 21.11.2017 13:00:00 (GMT)Cardinham, United Kingdom (3823): wind direction: 15.11.2017 13:00:00 - 21.11.2017 13:00:00 (GMT)Cardinham, United Kingdom (3823): reduced air pressure: 15.11.2017 13:00:00 - 21.11.2017 13:00:00 (GMT)Cardinham, United Kingdom (3823): visibility: 15.11.2017 13:00:00 - 21.11.2017 13:00:00 (GMT)Cardinham, United Kingdom (3823): precipitation: 15.11.2017 13:00:00 - 21.11.2017 13:00:00 (GMT)
Date & Time tt [°C] td [°C] ff [km/h] ff [kn] dd ppp [hPa] vv [km] rr [mm]
21.11.2017 13:00:00 13,1 11,7 29 16 SW 1010,1 16 0,0
21.11.2017 12:00:00 12,9 11,6 21 11 WSW 1011,1 17 0,0
21.11.2017 11:00:00 11,8 10,8 16 9 SSW 1012,0 14 0,0
21.11.2017 10:00:00 10,8 10,0 11 6 S 1012,4 14 0,0
21.11.2017 09:00:00 10,4 9,3 11 6 S 1012,7 15 0,0
21.11.2017 08:00:00 10,2 8,8 8 4 SSW 1012,8 15 0,0
21.11.2017 07:00:00 10,4 8,9 13 7 WSW 1012,8 17 0,0
21.11.2017 06:00:00 10,3 8,6 13 7 SW 1013,2 16 0,0
21.11.2017 05:00:00 10,3 8,5 13 7 WSW 1013,5 18 0,0
21.11.2017 04:00:00 10,2 8,8 15 8 SW 1013,7 17 0,0
21.11.2017 03:00:00 9,6 9,1 8 4 S 1014,3 14 0,0
21.11.2017 02:00:00 9,2 9,0 9 5 SSE 1014,7 10 0,0
21.11.2017 01:00:00 8,4 7,9 4 2 E 1015,4 11 0,0
21.11.2017 00:00:00 9,0 8,3 4 2 ESE 1015,4 15 0,0
20.11.2017 23:00:00 10,0 8,8 15 8 WSW 1015,8 18 0,0
20.11.2017 22:00:00 10,3 9,2 18 10 WSW 1015,9 16 0,0
20.11.2017 21:00:00 11,0 9,8 21 11 WSW 1016,2 16 0,0
20.11.2017 20:00:00 11,0 9,8 21 11 WSW 1016,5 15 0,0
20.11.2017 19:00:00 11,0 9,8 16 9 WSW 1016,5 16 0,0
20.11.2017 18:00:00 11,1 9,6 22 12 WSW 1016,0 18 0,0
20.11.2017 17:00:00 11,2 9,6 22 12 W 1016,2 15 0,0
20.11.2017 16:00:00 11,6 9,8 21 11 W 1016,8 22 -
20.11.2017 15:00:00 12,2 9,7 18 10 W 1016,9 19 0,0
20.11.2017 14:00:00 12,4 9,8 26 14 WSW 1016,9 17 0,0
20.11.2017 13:00:00 13,0 10,3 26 14 WSW 1017,2 23 0,0
20.11.2017 12:00:00 12,0 10,0 24 13 W 1017,6 18 0,0
20.11.2017 11:00:00 11,5 9,8 26 14 W 1018,3 16 0,0
20.11.2017 10:00:00 11,1 9,6 21 11 WSW 1018,5 18 0,0
20.11.2017 09:00:00 10,4 9,0 16 9 W 1018,5 20 0,0
20.11.2017 08:00:00 10,3 8,7 18 10 WSW 1018,7 22 0,0
20.11.2017 07:00:00 10,1 8,9 16 9 WNW 1018,7 21 0,0
20.11.2017 06:00:00 10,0 8,4 16 9 W 1019,1 17 -
20.11.2017 05:00:00 10,1 7,8 22 12 W 1019,5 30 0,0
20.11.2017 04:00:00 9,8 8,0 16 9 W 1020,0 21 0,0
20.11.2017 03:00:00 9,7 7,8 15 8 NW 1020,5 21 0,0
20.11.2017 02:00:00 9,6 7,7 16 9 NNW 1021,0 22 0,0
20.11.2017 01:00:00 9,2 7,8 13 7 SSW 1021,6 28 0,0
20.11.2017 00:00:00 9,3 8,0 13 7 W 1022,3 30 0,0
19.11.2017 23:00:00 9,2 8,6 13 7 WSW 1022,6 16 0,0
19.11.2017 22:00:00 8,9 8,9 9 5 SSW 1023,3 3,3 0,0
19.11.2017 21:00:00 8,4 8,4 4 2 SE 1023,5 0,1 0,0
19.11.2017 20:00:00 8,6 8,6 5 3 S 1023,8 0,2 0,0
19.11.2017 19:00:00 8,4 8,3 5 3 SSE 1023,9 1,6 0,2
19.11.2017 18:00:00 8,4 8,3 8 4 ESE 1023,9 1,7 0,0
19.11.2017 17:00:00 8,4 8,2 9 5 ESE 1023,9 2,1 0,2
19.11.2017 16:00:00 8,8 8,0 9 5 SE 1024,2 5 0,0
19.11.2017 15:00:00 9,4 7,9 11 6 SSE 1024,0 40 0,0
19.11.2017 14:00:00 9,4 7,9 11 6 S 1024,5 30 0,0
19.11.2017 13:00:00 9,3 7,7 8 4 S 1024,5 30 0,0
19.11.2017 12:00:00 9,3 7,4 8 4 S 1024,9 30 0,0
19.11.2017 11:00:00 9,0 7,8 9 5 SSE 1024,9 23 0,0
19.11.2017 10:00:00 8,3 7,3 8 4 SE 1024,9 24 0,0
19.11.2017 09:00:00 8,2 7,2 4 2 SE 1024,8 26 0,0
19.11.2017 08:00:00 7,7 6,8 4 2 NE 1024,8 13 -
19.11.2017 07:00:00 7,8 6,7 4 2 NE 1024,2 30 0,0
19.11.2017 06:00:00 7,9 6,9 9 5 NE 1024,0 35 0,0
19.11.2017 05:00:00 7,8 7,4 8 4 N 1023,8 27 0,0
19.11.2017 04:00:00 8,1 7,9 8 4 NNE 1023,4 13 0,0
19.11.2017 03:00:00 9,0 8,9 8 4 N 1023,5 5 0,0
19.11.2017 02:00:00 9,6 9,5 9 5 NNW 1023,2 4,7 0,0
19.11.2017 01:00:00 10,2 10,1 9 5 NNW 1023,3 7 0,4
19.11.2017 00:00:00 11,0 11,0 22 12 W 1023,0 4,1 0,0
18.11.2017 23:00:00 11,0 10,9 22 12 WNW 1022,9 4,5 0,0
18.11.2017 22:00:00 10,9 10,8 22 12 WNW 1023,1 4,4 0,2
18.11.2017 21:00:00 10,7 10,5 21 11 W 1023,3 5 0,2
18.11.2017 20:00:00 10,4 10,1 21 11 W 1023,5 10 0,0
18.11.2017 19:00:00 10,3 10,0 16 9 WNW 1023,7 9 0,0
18.11.2017 18:00:00 10,2 9,5 21 11 WNW 1023,8 13 0,0
18.11.2017 17:00:00 10,0 9,2 22 12 W 1024,0 15 0,0
18.11.2017 16:00:00 10,2 9,1 21 11 W 1024,2 16 0,0
18.11.2017 15:00:00 10,5 8,9 21 11 W 1024,3 17 0,0
18.11.2017 14:00:00 10,8 8,8 22 12 W 1024,8 22 0,0
18.11.2017 13:00:00 10,5 8,9 18 10 W 1025,2 22 0,0
18.11.2017 12:00:00 9,6 8,2 15 8 W 1026,0 17 0,0
18.11.2017 11:00:00 9,4 7,9 16 9 W 1026,3 19 0,0
18.11.2017 10:00:00 7,5 6,1 11 6 WSW 1026,5 22 0,0
18.11.2017 09:00:00 5,8 4,3 15 8 W 1026,7 22 0,0
18.11.2017 08:00:00 4,8 3,7 11 6 WSW 1026,7 19 0,0
18.11.2017 07:00:00 4,7 3,4 13 7 W 1026,7 23 0,0
18.11.2017 06:00:00 4,5 2,2 13 7 WSW 1026,7 27 0,0
18.11.2017 05:00:00 4,1 1,9 11 6 WSW 1027,3 28 0,0
18.11.2017 04:00:00 3,5 0,8 8 4 WSW 1027,9 30 0,0
18.11.2017 03:00:00 3,4 -0,4 8 4 WSW 1028,0 30 0,0
18.11.2017 02:00:00 3,7 -0,4 5 3 WSW 1028,4 35 0,0
18.11.2017 01:00:00 4,4 -1,0 4 2 WSW 1028,7 40 0,0
18.11.2017 00:00:00 3,9 -1,1 8 4 W 1029,1 50 0,0
17.11.2017 23:00:00 3,4 -1,1 4 2 SSW 1029,3 40 0,0
17.11.2017 22:00:00 3,4 -0,9 8 4 SE 1029,5 40 0,0
17.11.2017 21:00:00 3,3 -0,2 8 4 SE 1029,3 45 0,0
17.11.2017 20:00:00 2,9 -0,1 4 2 E 1029,6 30 0,0
17.11.2017 19:00:00 3,3 -0,1 8 4 ENE 1029,5 45 0,0
17.11.2017 18:00:00 3,1 -0,2 8 4 NE 1029,7 28 0,0
17.11.2017 17:00:00 4,7 -0,3 5 3 NE 1029,4 35 0,0
17.11.2017 16:00:00 6,9 0,4 5 3 NE 1029,4 45 0,0
17.11.2017 15:00:00 7,4 -1,1 8 4 ENE 1029,2 45 0,0
17.11.2017 14:00:00 8,5 -1,2 9 5 ENE 1029,4 40 0,0
17.11.2017 13:00:00 10,0 -0,3 4 2 N 1029,8 45 0,0
17.11.2017 12:00:00 9,6 1,1 5 3 NW 1030,5 24 0,0
17.11.2017 11:00:00 8,2 2,0 5 3 ESE 1030,5 25 0,0
17.11.2017 10:00:00 6,3 1,2 8 4 E 1030,5 35 0,0
17.11.2017 09:00:00 4,3 0,6 5 3 E 1030,4 21 0,0
17.11.2017 08:00:00 1,8 -0,3 11 6 ENE 1030,1 27 0,0
17.11.2017 07:00:00 2,7 0,4 16 9 NE 1029,9 26 0,0
17.11.2017 06:00:00 3,2 0,6 16 9 NE 1029,8 23 -
17.11.2017 05:00:00 3,3 0,9 18 10 NE 1029,8 27 0,0
17.11.2017 04:00:00 3,6 1,3 21 11 NE 1029,6 29 0,0
17.11.2017 03:00:00 4,3 1,8 24 13 NE 1029,5 26 0,0
17.11.2017 02:00:00 3,8 2,1 21 11 NE 1029,5 25 0,0
17.11.2017 01:00:00 3,9 2,3 21 11 NE 1029,3 26 0,0
17.11.2017 00:00:00 3,4 2,3 16 9 NNE 1029,1 28 0,0
16.11.2017 23:00:00 2,7 1,2 13 7 NNE 1029,1 22 0,0
16.11.2017 22:00:00 3,6 1,8 15 8 NNE 1029,0 23 0,0
16.11.2017 21:00:00 4,6 2,8 15 8 NNE 1028,4 23 0,0
16.11.2017 20:00:00 5,6 4,1 16 9 NNE 1027,6 24 0,0
16.11.2017 19:00:00 7,0 5,3 13 7 NNE 1026,8 30 0,0
16.11.2017 18:00:00 7,8 6,5 11 6 N 1026,2 22 0,0
16.11.2017 17:00:00 8,2 7,3 15 8 NNE 1025,6 17 0,0
16.11.2017 16:00:00 8,7 8,0 18 10 N 1025,0 20 0,2
16.11.2017 15:00:00 10,6 10,3 11 6 WNW 1023,9 2,2 0,2
16.11.2017 14:00:00 10,9 9,6 15 8 WNW 1024,0 9 0,0
16.11.2017 13:00:00 12,0 9,7 16 9 WNW 1023,8 29 0,0
16.11.2017 12:00:00 12,0 9,4 15 8 WNW 1023,9 40 0,0
16.11.2017 11:00:00 12,2 9,6 13 7 WNW 1023,6 25 0,0
16.11.2017 10:00:00 10,6 9,2 9 5 WSW 1023,4 20 0,0
16.11.2017 09:00:00 8,2 7,9 8 4 SW 1023,4 8 0,0
16.11.2017 08:00:00 7,6 7,2 11 6 W 1023,1 9 0,0
16.11.2017 07:00:00 8,3 7,8 13 7 W 1022,6 10 0,0
16.11.2017 06:00:00 8,3 7,9 11 6 WSW 1022,3 9 0,0
16.11.2017 05:00:00 8,0 7,7 8 4 WSW 1022,1 10 0,0
16.11.2017 04:00:00 7,9 7,5 8 4 SW 1022,2 10 0,0
16.11.2017 03:00:00 8,7 8,4 4 2 SSW 1022,4 7 0,0
16.11.2017 02:00:00 8,9 8,4 4 2 S 1022,4 9 0,0
16.11.2017 01:00:00 9,2 8,8 8 4 S 1022,9 10 0,0
16.11.2017 00:00:00 9,2 8,8 4 2 WSW 1023,6 10 0,0
15.11.2017 23:00:00 9,4 9,0 5 3 SSW 1023,3 11 0,0
15.11.2017 22:00:00 9,4 9,1 5 3 SSW 1023,7 8 0,0
15.11.2017 21:00:00 9,4 9,1 4 2 WSW 1023,6 7 0,2
15.11.2017 20:00:00 9,4 9,1 5 3 SW 1023,7 6 0,0
15.11.2017 19:00:00 9,9 9,5 4 2 SW 1023,7 9 -
15.11.2017 18:00:00 9,9 9,6 8 4 S 1023,6 10 0,0
15.11.2017 17:00:00 10,3 9,6 5 3 S 1023,9 13 0,0
15.11.2017 16:00:00 10,6 8,9 5 3 SSW 1023,9 35 0,0
15.11.2017 15:00:00 11,5 9,3 8 4 WSW 1024,1 40 0,0
15.11.2017 14:00:00 11,8 9,7 11 6 WSW 1024,3 35 0,0
15.11.2017 13:00:00 11,7 9,8 5 3 SSW 1024,6 35 0,0

tt = temperature
td = dewpoint
ff = wind speed
dd = wind direction
ppp = reduced air pressure
vv = visibility
rr = precipitation

Next stations